[[{"header":{"parameterUnit":"m.s-1","parameterCategory":1,"la1":30.2991,"la2":30.254,"lo1":-89.0895,"lo2":-89.0444,"dy":0.0017,"dx":0.0017,"nx":28,"ny":28,"refTime":"2025-04-01T09:00:00:Z","depth":0,"parameterNumber":2,"parameterNumberName":"U-component_of_WINDS"},"data":[0,0,0,0,0,0,0,0,0,0,0,0,0,0,0,0,0,0,0,0,0,0,0,0,0,0,0,0,0,0,0,0,0,0,0,0,0,0,0,0,0,0,0,0,0,0,0,0,0,0,0,0,0,0,0,0,0,0,-4.0667,-4.0669,0,-4.0823,-4.0824,-4.0826,-4.0865,-4.0864,-4.0863,-4.0862,-4.1022,-4.1027,-4.1032,0,0,0,0,0,0,0,0,0,0,0,0,0,-4.0405,-4.0409,-4.0667,-4.0669,-4.0671,-4.0822,-4.0824,-4.0826,-4.0865,-4.0864,-4.0863,-4.0862,-4.102,-4.1026,-4.1032,0,0,0,0,0,0,0,0,0,0,0,0,0,-4.0535,-4.0411,-4.0667,-4.0708,-4.0714,-4.0822,-4.0824,-4.0827,-4.0866,-4.0864,-4.0863,-4.0861,-4.1018,-4.1025,-4.1033,-4.111,0,0,-4.1057,-4.106,0,0,0,0,0,0,0,0,-4.0528,-4.0545,-4.07,-4.0706,-4.0712,-4.0823,-4.079,-4.0922,-4.0866,-4.0808,-4.0862,-4.086,-4.0957,-4.0969,-4.1002,-4.1118,-4.1125,-4.1057,-4.1062,-4.1065,-4.1068,0,0,0,0,0,0,0,-4.0519,-4.0538,-4.0728,-4.0703,-4.071,-4.072,-4.0737,-4.0816,-4.0889,-4.0813,-4.0816,-4.0834,-4.0959,-4.0994,-4.1006,-4.1127,-4.1057,-4.1064,-4.1069,-4.1072,-4.1316,-4.1317,0,0,0,0,0,0,-4.0502,-4.0531,-4.0724,-4.0733,-4.0614,-4.0726,-4.0745,-4.0789,-4.0888,-4.0902,-4.0835,-4.0835,-4.0982,-4.0997,-4.1012,-4.1109,-4.1065,-4.1073,-4.1077,-4.1314,-4.1316,-4.1318,0,0,0,0,0,0,-4.0497,-4.0519,-4.0717,-4.0633,-4.0659,-4.0732,-4.0781,-4.0793,-4.0827,-4.0905,-4.0918,-4.0857,-4.0981,-4.1001,-4.1086,-4.1115,-4.1076,-4.1083,-4.1312,-4.1314,-4.1317,-4.1304,0,0,0,0,0,0,-4.0489,-4.0517,-4.0547,-4.0633,-4.0663,-4.0788,-4.0783,-4.0797,-4.0841,-4.0842,-4.0929,-4.0942,-4.0981,-4.1074,-4.1093,-4.1125,-4.1089,-4.1309,-4.1313,-4.1316,-4.1302,-4.1305,-4.1309,0,0,0,0,0,-4.0479,-4.0537,-4.0548,-4.0571,-4.0702,-4.079,-4.0807,-4.0852,-4.0843,-4.0873,-4.0923,-4.0939,-4.1109,-4.1082,-4.1105,-4.1139,-4.1308,-4.1312,-4.1316,-4.13,-4.1305,-4.1309,0,0,0,0,0,0,-4.0451,-4.0549,-4.0562,-4.0649,-4.0711,-4.0796,-4.0836,-4.0855,-4.0921,-4.092,-4.0972,-4.0992,-4.1073,-4.1115,-4.1084,-4.1219,-4.1208,-4.1217,-4.1189,-4.1194,-4.1197,-4.1185,-4.1096,0,0,0,0,0,-4.0455,-4.0518,-4.06,-4.0669,-4.07,-4.0763,-4.0803,-4.0832,-4.0898,-4.0924,-4.098,-4.1044,-4.1112,-4.1156,-4.1222,-4.1309,-4.1328,-4.1343,-4.1347,-4.1349,-4.1356,-4.1405,-4.1412,-4.1331,-4.1331,-4.1331,0,0,-4.0464,-4.0525,-4.0562,-4.0665,-4.0716,-4.0781,-4.0784,-4.0852,-4.0901,-4.0935,-4.1018,-4.1062,-4.1137,-4.1223,-4.1263,-4.126,-4.1383,-4.1355,-4.1356,-4.1361,-4.141,-4.1417,-4.1424,-4.1334,-4.1334,-4.1333,0,0,-4.0512,-4.0565,-4.0628,-4.068,-4.0758,-4.08,-4.0815,-4.0898,-4.0928,-4.1013,-4.104,-4.1099,-4.1215,-4.1267,-4.1308,-4.1378,-4.1395,-4.1399,-4.1417,-4.1464,-4.147,-4.1476,-4.15,-4.1509,-4.1405,-4.1405,-4.1405,0,-4.0513,-4.0611,-4.0658,-4.0725,-4.077,-4.0804,-4.0869,-4.0917,-4.1012,-4.1043,-4.1038,-4.1184,-4.1237,-4.1336,-4.1353,-4.1386,-4.1405,-4.1388,-4.1465,-4.1472,-4.1478,-4.1502,-4.1511,-4.1405,-4.1405,-4.1405,-4.1405,0,-4.0608,-4.0676,-4.0717,-4.0809,-4.0859,-4.0924,-4.0981,-4.1026,-4.1052,-4.1094,-4.1181,-4.1246,-4.1326,-4.1352,-4.1378,-4.1455,-4.145,-4.1455,-4.1444,-4.1485,-4.1508,-4.1518,-4.1405,-4.1405,-4.1405,-4.1405,0,0,-4.0642,-4.0759,-4.0774,-4.0816,-4.0905,-4.0958,-4.1026,-4.1104,-4.1142,-4.1207,-4.1265,-4.1363,-4.1368,-4.1415,-4.1447,-4.1489,-4.1539,-4.1488,-4.1491,-4.1495,-4.1629,-4.1624,-4.1633,-4.1552,-4.1554,-4.1555,-4.1622,0,-4.07,-4.0821,-4.0866,-4.0965,-4.1028,-4.1063,-4.1122,-4.1183,-4.1225,-4.1285,-4.1332,-4.14,-4.1402,-4.143,-4.1473,-4.1524,-4.1567,-4.152,-4.1606,-4.1608,-4.1584,-4.1646,-4.1641,-4.17,-4.1631,-4.1633,-4.1634,0,-4.0785,-4.0851,-4.0956,-4.1038,-4.1066,-4.1118,-4.1194,-4.1251,-4.1322,-4.1349,-4.1403,-4.1432,-4.1505,-4.1491,-4.1592,-4.1559,-4.1597,-4.1628,-4.1631,-4.1639,-4.1622,-4.1655,-4.172,-4.1729,-4.1649,-4.1648,-4.1647,0,-4.0797,-4.0913,-4.0991,-4.1026,-4.1124,-4.1159,-4.1202,-4.1271,-4.1316,-4.1383,-4.1412,-4.1487,-4.1528,-4.1585,-4.1634,-4.162,-4.173,-4.1721,-4.1755,-4.1754,-4.1775,-4.1773,-4.1847,-4.1802,-4.1802,-4.1802,-4.1801,0,-4.0858,-4.092,-4.0998,-4.1046,-4.1117,-4.1169,-4.1239,-4.1284,-4.1345,-4.1403,-4.1438,-4.1491,-4.1553,-4.1615,-4.1654,-4.1731,-4.175,-4.1774,-4.1783,-4.177,-4.1767,-4.1795,-4.1791,-4.1804,-4.1804,-4.1803,-4.1803,0,-4.0883,-4.0938,-4.1025,-4.111,-4.1133,-4.1182,-4.1256,-4.1304,-4.1348,-4.142,-4.144,-4.151,-4.1584,-4.1639,-4.1736,-4.1762,-4.1844,-4.1854,-4.182,-4.1824,-4.1855,-4.1851,-4.1948,-4.1964,-4.1909,-4.191,-4.191,0,-4.0917,-4.0966,-4.1057,-4.1098,-4.114,-4.1206,-4.1252,-4.1305,-4.1352,-4.1437,-4.1474,-4.1551,-4.1615,-4.1733,-4.1792,-4.1866,-4.1878,-4.1907,-4.1889,-4.1874,-4.1877,-4.1873,-4.1878,-4.1908,-4.1909,-4.1909,-4.1909,0,-4.0972,-4.0997,-4.1061,-4.1136,-4.119,-4.1251,-4.1313,-4.1345,-4.1409,-4.146,-4.1536,-4.1586,-4.1685,-4.176,-4.1841,-4.1885,-4.1908,-4.1915,-4.1926,-4.1913,-4.189,-4.1902,-4.1825,-4.1912,-4.1912,-4.1911,-4.1911,-4.1911,-4.1003,-4.1048,-4.1119,-4.119,-4.1242,-4.1299,-4.1349,-4.1399,-4.1464,-4.1548,-4.1576,-4.1655,-4.1725,-4.1835,-4.1881,-4.1944,-4.1943,-4.196,-4.1964,-4.1968,-4.1966,-4.1881,-4.1958,-4.1959,-4.1959,-4.1959,-4.1959,0,-4.1059,-4.1106,-4.1171,-4.1256,-4.1312,-4.133,-4.1399,-4.1445,-4.1514,-4.1578,-4.164,-4.1728,-4.1802,-4.1868,-4.1945,-4.1982,-4.1995,-4.2001,-4.1998,-4.2008,-4.1962,-4.1944,-4.1989,-4.1989,-4.1989,-4.1989,-4.1989,-4.1989,-4.1094,-4.1171,-4.1205,-4.1309,-4.1356,-4.1433,-4.1472,-4.1525,-4.1576,-4.1672,-4.1734,-4.1776,-4.1841,-4.1923,-4.1992,-4.201,-4.2036,-4.2039,-4.2059,-4.2015,-4.2011,-4.2007,-4.199,-4.2045,-4.2045,-4.2099,-4.21,-4.21]},{"header":{"parameterUnit":"m.s-1","parameterCategory":1,"la1":30.2991,"la2":30.254,"lo1":-89.0895,"lo2":-89.0444,"dy":0.0017,"dx":0.0017,"nx":28,"ny":28,"refTime":"2025-04-01T09:00:00:Z","depth":0,"parameterNumber":3,"parameterNumberName":"V-component_of_WINDS"},"data":[0,0,0,0,0,0,0,0,0,0,0,0,0,0,0,0,0,0,0,0,0,0,0,0,0,0,0,0,0,0,0,0,0,0,0,0,0,0,0,0,0,0,0,0,0,0,0,0,0,0,0,0,0,0,0,0,0,0,6.3633,6.3634,0,6.3768,6.3769,6.3771,6.3752,6.3749,6.3747,6.3745,6.3881,6.3887,6.3893,0,0,0,0,0,0,0,0,0,0,0,0,0,6.336,6.3365,6.3633,6.3634,6.3636,6.3767,6.3769,6.3771,6.3752,6.3749,6.3747,6.3744,6.3879,6.3886,6.3893,0,0,0,0,0,0,0,0,0,0,0,0,0,6.3485,6.3366,6.3632,6.3643,6.3645,6.3767,6.3769,6.3771,6.3753,6.3749,6.3746,6.3743,6.3877,6.3886,6.3894,6.4014,0,0,6.392,6.3924,0,0,0,0,0,0,0,0,6.3477,6.3495,6.3639,6.3642,6.3645,6.3739,6.3723,6.3853,6.3753,6.3712,6.3745,6.3741,6.3837,6.3848,6.3881,6.4021,6.4026,6.3921,6.3926,6.393,6.3932,0,0,0,0,0,0,0,6.3469,6.3489,6.3686,6.3642,6.3645,6.364,6.3655,6.3747,6.3791,6.3715,6.3714,6.373,6.3838,6.3873,6.3884,6.4028,6.3921,6.3928,6.3934,6.3937,6.4276,6.428,0,0,0,0,0,0,6.3458,6.3482,6.3682,6.369,6.3551,6.3648,6.3664,6.3712,6.379,6.3799,6.3733,6.3729,6.386,6.3874,6.3889,6.4037,6.393,6.3938,6.3943,6.4272,6.4277,6.4281,0,0,0,0,0,0,6.3452,6.3476,6.3676,6.3586,6.3611,6.3656,6.3711,6.3717,6.3752,6.3804,6.3812,6.3761,6.3858,6.3877,6.3984,6.4041,6.3942,6.3949,6.4268,6.4274,6.4279,6.4332,0,0,0,0,0,0,6.3444,6.3474,6.3519,6.3587,6.3616,6.3769,6.3715,6.3722,6.3767,6.3763,6.3832,6.384,6.3857,6.3971,6.3992,6.4051,6.3956,6.4263,6.4271,6.4277,6.4325,6.4339,6.4351,0,0,0,0,0,6.3434,6.3528,6.3522,6.3546,6.3674,6.3773,6.3789,6.3806,6.3772,6.3819,6.3852,6.3838,6.4031,6.3982,6.4006,6.4068,6.4259,6.4268,6.4277,6.432,6.4336,6.435,0,0,0,0,0,0,6.3465,6.3537,6.3531,6.3649,6.3705,6.3769,6.3829,6.3823,6.3889,6.3882,6.39,6.3916,6.4025,6.4057,6.4001,6.419,6.4141,6.4154,6.4165,6.4181,6.4194,6.4184,6.3963,0,0,0,0,0,6.3486,6.356,6.3618,6.3717,6.3746,6.3783,6.3826,6.3835,6.3893,6.3916,6.3958,6.4015,6.4088,6.4136,6.4207,6.433,6.4346,6.4384,6.4397,6.4407,6.4419,6.4489,6.4507,6.431,6.431,6.431,0,0,6.3529,6.3577,6.3623,6.3725,6.3769,6.3846,6.3802,6.3885,6.3942,6.3928,6.4033,6.4066,6.413,6.4247,6.43,6.4277,6.4477,6.4418,6.4426,6.4432,6.45,6.4518,6.4535,6.4316,6.4315,6.4314,0,0,6.3647,6.3691,6.3779,6.3825,6.3893,6.3917,6.3939,6.4005,6.4026,6.4131,6.4124,6.4192,6.4318,6.4365,6.4406,6.4545,6.4535,6.4568,6.4633,6.4701,6.4717,6.4731,6.4782,6.48,6.4579,6.4579,6.4579,0,6.3692,6.3808,6.3825,6.391,6.3955,6.3948,6.4038,6.4081,6.4169,6.4201,6.4174,6.4334,6.4377,6.4505,6.454,6.4572,6.4598,6.456,6.4713,6.4727,6.4741,6.479,6.4809,6.4583,6.4583,6.4582,6.4582,0,6.3861,6.3941,6.4004,6.4091,6.4144,6.423,6.4261,6.4313,6.4318,6.4345,6.4454,6.4505,6.4587,6.4618,6.4622,6.4748,6.4732,6.4709,6.466,6.4763,6.481,6.4829,6.4588,6.4587,6.4586,6.4585,0,0,6.4001,6.4098,6.4121,6.4161,6.4237,6.43,6.4387,6.4468,6.4513,6.4574,6.4648,6.4756,6.4736,6.4783,6.4792,6.4852,6.4962,6.4822,6.4824,6.4848,6.5106,6.5124,6.5145,6.4956,6.4959,6.4962,6.5101,0,6.4128,6.4283,6.4302,6.444,6.4516,6.4511,6.4587,6.4642,6.467,6.4739,6.477,6.4847,6.4814,6.4842,6.4901,6.4936,6.5014,6.4926,6.5026,6.5029,6.5011,6.517,6.5188,6.5317,6.5119,6.5122,6.5125,0,6.4297,6.4365,6.451,6.4578,6.4611,6.4679,6.4756,6.4821,6.4884,6.4901,6.4954,6.4957,6.5048,6.4995,6.5122,6.5062,6.5104,6.5128,6.5133,6.5144,6.5084,6.5186,6.5358,6.5378,6.5153,6.5151,6.5149,0,6.4387,6.4515,6.4619,6.4653,6.4734,6.4783,6.4819,6.4879,6.4927,6.4995,6.5027,6.5103,6.5146,6.5206,6.523,6.5189,6.5356,6.5304,6.5373,6.5373,6.5409,6.5407,6.5592,6.5434,6.5434,6.5433,6.5433,0,6.4528,6.4618,6.4661,6.4725,6.4827,6.4848,6.4947,6.4981,6.5035,6.5106,6.5106,6.5173,6.52,6.5272,6.5291,6.5395,6.5413,6.543,6.5434,6.5431,6.5429,6.5459,6.5452,6.5439,6.5438,6.5437,6.5436,0,6.4646,6.4679,6.4793,6.4861,6.488,6.4952,6.501,6.5073,6.5101,6.5192,6.5214,6.5259,6.5343,6.5373,6.5475,6.5488,6.5609,6.5605,6.5588,6.5589,6.5657,6.5651,6.587,6.59,6.5721,6.5722,6.5724,0,6.4735,6.4804,6.488,6.4929,6.4967,6.5044,6.5094,6.5118,6.5171,6.5249,6.5303,6.5387,6.5456,6.5591,6.5633,6.5712,6.5711,6.5782,6.5722,6.5718,6.5714,6.571,6.5718,6.5793,6.5795,6.5796,6.5798,0,6.4889,6.4902,6.4974,6.5054,6.5114,6.5177,6.5238,6.5278,6.5311,6.537,6.5457,6.5511,6.5616,6.5701,6.5782,6.5819,6.5815,6.5816,6.5837,6.5834,6.5823,6.5832,6.562,6.5811,6.581,6.5809,6.5808,6.5807,6.4996,6.5058,6.5123,6.5204,6.5253,6.5311,6.5374,6.5411,6.5484,6.5573,6.5582,6.5677,6.574,6.5849,6.589,6.5965,6.5945,6.5974,6.5982,6.5989,6.5995,6.581,6.5979,6.5979,6.5978,6.5978,6.5978,0,6.5152,6.5193,6.5268,6.5355,6.5419,6.541,6.5478,6.5533,6.5616,6.5676,6.5744,6.5845,6.5928,6.5976,6.6059,6.611,6.611,6.6131,6.6128,6.6137,6.6007,6.5982,6.6129,6.6129,6.6129,6.6129,6.6129,6.6129,6.5241,6.5346,6.5368,6.5498,6.5539,6.5632,6.5672,6.5726,6.5774,6.5888,6.5956,6.5988,6.6044,6.6131,6.6207,6.6219,6.625,6.6273,6.6284,6.6161,6.6146,6.6131,6.6108,6.6279,6.628,6.6408,6.641,6.641]}]]